[[{"header":{"parameterUnit":"m.s-1","parameterCategory":1,"la1":30.2991,"la2":30.254,"lo1":-89.0895,"lo2":-89.0444,"dx":0.0017,"dy":0.0017,"nx":28,"ny":28,"refTime":"2022-12-16T09:00:00:Z","depth":0,"parameterNumber":2,"parameterNumberName":"U-component_of_WINDS"},"data":[0,0,0,0,0,0,0,0,0,0,0,0,0,0,0,0,0,0,0,0,0,0,0,0,0,0,0,0,0,0,0,0,0,0,0,0,0,0,0,0,0,0,0,0,0,0,0,0,0,0,0,0,0,0,0,0,0,0,0.9081,0.9081,0,0.9103,0.9103,0.9103,0.9081,0.908,0.908,0.9079,0.9102,0.9103,0.9104,0,0,0,0,0,0,0,0,0,0,0,0,0,0.9025,0.9026,0.9081,0.9081,0.9082,0.9103,0.9103,0.9103,0.9081,0.908,0.9079,0.9078,0.9101,0.9103,0.9105,0,0,0,0,0,0,0,0,0,0,0,0,0,0.9048,0.9026,0.9081,0.9073,0.9073,0.9102,0.9103,0.9103,0.9082,0.908,0.9079,0.9078,0.9101,0.9103,0.9105,0.9143,0,0,0.9111,0.9112,0,0,0,0,0,0,0,0,0.9047,0.905,0.9074,0.9074,0.9073,0.9088,0.9091,0.9117,0.9082,0.9078,0.9079,0.9077,0.9098,0.91,0.9107,0.9145,0.9146,0.9111,0.9113,0.9114,0.9114,0,0,0,0,0,0,0,0.9045,0.9049,0.909,0.9075,0.9074,0.907,0.9072,0.9096,0.9095,0.9078,0.9077,0.908,0.9098,0.9105,0.9108,0.9146,0.9111,0.9113,0.9115,0.9115,0.922,0.9221,0,0,0,0,0,0,0.9044,0.9048,0.9089,0.909,0.9057,0.9072,0.9074,0.9085,0.9095,0.9095,0.9081,0.9079,0.9102,0.9105,0.9108,0.9156,0.9114,0.9116,0.9117,0.9218,0.922,0.9222,0,0,0,0,0,0,0.9043,0.9048,0.9088,0.9069,0.9073,0.9074,0.9086,0.9086,0.9093,0.9097,0.9097,0.9088,0.9101,0.9105,0.9136,0.9157,0.9117,0.9118,0.9217,0.9219,0.9221,0.9251,0,0,0,0,0,0,0.9041,0.9048,0.9061,0.9069,0.9075,0.9114,0.9087,0.9087,0.9097,0.9094,0.9104,0.9104,0.9101,0.9133,0.9138,0.9159,0.912,0.9215,0.9218,0.922,0.9248,0.9254,0.9259,0,0,0,0,0,0.9039,0.9068,0.9062,0.9067,0.9091,0.9115,0.9118,0.9113,0.9098,0.9113,0.9116,0.9104,0.9154,0.9136,0.9141,0.9164,0.9213,0.9217,0.922,0.9246,0.9253,0.9259,0,0,0,0,0,0,0.9062,0.9069,0.9062,0.9094,0.9104,0.9111,0.9129,0.9121,0.9135,0.9132,0.9126,0.9129,0.9161,0.9165,0.9145,0.9204,0.9181,0.9186,0.9199,0.9206,0.9211,0.921,0.9122,0,0,0,0,0,0.9071,0.9089,0.9094,0.9122,0.9128,0.9128,0.9138,0.9134,0.9144,0.9148,0.9153,0.9164,0.9183,0.9195,0.9211,0.925,0.9253,0.9268,0.9273,0.9278,0.9282,0.9305,0.9313,0.9233,0.9233,0.9233,0,0,0.9089,0.9095,0.9107,0.9127,0.9134,0.9154,0.9131,0.9153,0.9168,0.9151,0.918,0.9185,0.9197,0.9232,0.9248,0.9237,0.9305,0.9282,0.9286,0.9287,0.9309,0.9317,0.9324,0.9235,0.9235,0.9234,0,0,0.9133,0.9138,0.9163,0.9172,0.9184,0.9184,0.9191,0.92,0.9202,0.9231,0.922,0.9239,0.927,0.928,0.929,0.9341,0.9332,0.9347,0.9376,0.9398,0.9405,0.941,0.943,0.9438,0.9351,0.9351,0.9351,0,0.9154,0.9182,0.9177,0.92,0.9211,0.9198,0.9225,0.9233,0.925,0.9258,0.9246,0.9287,0.9294,0.9333,0.9346,0.9353,0.9362,0.9345,0.9404,0.941,0.9415,0.9434,0.9441,0.9353,0.9353,0.9353,0.9353,0,0.9209,0.9229,0.9248,0.9266,0.9278,0.9303,0.9304,0.9317,0.9313,0.9316,0.9348,0.9356,0.9376,0.9385,0.9381,0.9424,0.9417,0.9405,0.9382,0.9424,0.9442,0.945,0.9356,0.9355,0.9355,0.9354,0,0,0.9264,0.9281,0.9288,0.9297,0.9311,0.9328,0.9353,0.9373,0.9386,0.9399,0.9422,0.945,0.944,0.9451,0.9448,0.9468,0.9511,0.9453,0.9453,0.9464,0.9562,0.9572,0.958,0.9505,0.9507,0.9508,0.9562,0,0.9309,0.9352,0.9351,0.9392,0.9412,0.9402,0.9425,0.9437,0.9441,0.946,0.9465,0.9486,0.9469,0.9476,0.9496,0.9501,0.9531,0.9498,0.9527,0.9528,0.9524,0.9589,0.9598,0.9649,0.9568,0.957,0.957,0,0.9366,0.9382,0.9426,0.944,0.9448,0.9468,0.9488,0.9506,0.9521,0.9522,0.9536,0.9531,0.9559,0.9537,0.9577,0.9555,0.9568,0.9573,0.9575,0.9577,0.9552,0.9594,0.9664,0.9672,0.9581,0.958,0.9579,0,0.9403,0.9436,0.9467,0.9475,0.9492,0.9507,0.9515,0.9528,0.9541,0.9559,0.9568,0.9589,0.9601,0.9618,0.962,0.9603,0.9661,0.9639,0.9665,0.9665,0.9677,0.9676,0.9751,0.9685,0.9684,0.9684,0.9684,0,0.9453,0.9481,0.9485,0.9504,0.9535,0.9534,0.9566,0.9572,0.9585,0.9607,0.96,0.9621,0.9622,0.9644,0.9646,0.968,0.9685,0.9688,0.9689,0.9689,0.9689,0.9697,0.9694,0.9686,0.9686,0.9685,0.9685,0,0.95,0.9503,0.9537,0.9551,0.9556,0.9578,0.9591,0.961,0.9615,0.9643,0.9649,0.9657,0.9683,0.9687,0.9717,0.9718,0.976,0.9756,0.9755,0.9754,0.9781,0.9779,0.9864,0.9876,0.9801,0.9802,0.9802,0,0.9531,0.9552,0.9569,0.9584,0.9592,0.9615,0.9629,0.963,0.9645,0.9666,0.9684,0.9709,0.9729,0.9771,0.978,0.9804,0.9802,0.983,0.9805,0.9806,0.9804,0.9802,0.9806,0.9834,0.9835,0.9836,0.9836,0,0.9587,0.9589,0.9609,0.9631,0.9648,0.9666,0.9682,0.9694,0.9698,0.9716,0.9743,0.9759,0.9791,0.9817,0.9841,0.9851,0.9845,0.9845,0.9852,0.9853,0.9852,0.9854,0.9768,0.9842,0.9842,0.9841,0.9841,0.9841,0.9627,0.9647,0.9663,0.9687,0.97,0.9716,0.9736,0.9744,0.9766,0.9792,0.9792,0.9822,0.984,0.9873,0.9884,0.9909,0.99,0.991,0.9913,0.9916,0.9919,0.9848,0.9913,0.9913,0.9913,0.9913,0.9913,0,0.9684,0.9695,0.9716,0.9741,0.976,0.9754,0.9773,0.979,0.9816,0.9833,0.9854,0.9887,0.9913,0.9925,0.9952,0.997,0.9968,0.9977,0.9975,0.9978,0.9925,0.9916,0.9978,0.9978,0.9978,0.9978,0.9978,0.9978,0.9715,0.9749,0.9753,0.9794,0.9805,0.9834,0.9846,0.9862,0.9876,0.9912,0.9934,0.9942,0.9959,0.9987,1.0012,1.0015,1.0026,1.0036,1.0038,0.9988,0.9981,0.9975,0.9967,1.0038,1.0038,1.0089,1.009,1.009]},{"header":{"parameterUnit":"m.s-1","parameterCategory":1,"la1":30.2991,"la2":30.254,"lo1":-89.0895,"lo2":-89.0444,"dx":0.0017,"dy":0.0017,"nx":28,"ny":28,"refTime":"2022-12-16T09:00:00:Z","depth":0,"parameterNumber":3,"parameterNumberName":"V-component_of_WINDS"},"data":[0,0,0,0,0,0,0,0,0,0,0,0,0,0,0,0,0,0,0,0,0,0,0,0,0,0,0,0,0,0,0,0,0,0,0,0,0,0,0,0,0,0,0,0,0,0,0,0,0,0,0,0,0,0,0,0,0,0,-4.0668,-4.0669,0,-4.0755,-4.0756,-4.0757,-4.0704,-4.0702,-4.0699,-4.0697,-4.0782,-4.0786,-4.0791,0,0,0,0,0,0,0,0,0,0,0,0,0,-4.0451,-4.0455,-4.0668,-4.0669,-4.067,-4.0755,-4.0756,-4.0757,-4.0705,-4.0702,-4.0699,-4.0696,-4.078,-4.0786,-4.0791,0,0,0,0,0,0,0,0,0,0,0,0,0,-4.0542,-4.0456,-4.0668,-4.0654,-4.0654,-4.0755,-4.0756,-4.0758,-4.0705,-4.0702,-4.0698,-4.0694,-4.0779,-4.0785,-4.0792,-4.091,0,0,-4.0813,-4.0816,0,0,0,0,0,0,0,0,-4.0537,-4.055,-4.0655,-4.0655,-4.0655,-4.0715,-4.0711,-4.0809,-4.0706,-4.0686,-4.0697,-4.0692,-4.0762,-4.077,-4.0795,-4.0914,-4.0918,-4.0814,-4.0818,-4.0821,-4.0823,0,0,0,0,0,0,0,-4.0531,-4.0546,-4.0702,-4.0657,-4.0657,-4.0642,-4.0651,-4.0729,-4.0744,-4.0687,-4.0684,-4.0695,-4.0762,-4.0788,-4.0796,-4.0919,-4.0814,-4.082,-4.0824,-4.0827,-4.1136,-4.114,0,0,0,0,0,0,-4.0526,-4.0541,-4.07,-4.0705,-4.0586,-4.0649,-4.0659,-4.07,-4.0743,-4.0746,-4.0698,-4.0692,-4.0778,-4.0788,-4.0799,-4.0938,-4.0821,-4.0827,-4.0831,-4.1132,-4.1137,-4.1141,0,0,0,0,0,0,-4.0522,-4.0541,-4.0696,-4.0622,-4.0641,-4.0657,-4.0703,-4.0703,-4.073,-4.0751,-4.0753,-4.0723,-4.0776,-4.079,-4.0882,-4.0941,-4.083,-4.0837,-4.1127,-4.1133,-4.1139,-4.1219,0,0,0,0,0,0,-4.0516,-4.0539,-4.0586,-4.0624,-4.0645,-4.078,-4.0707,-4.0708,-4.0743,-4.0736,-4.0775,-4.0778,-4.0774,-4.0872,-4.0889,-4.0948,-4.0842,-4.1122,-4.113,-4.1137,-4.1211,-4.1227,-4.124,0,0,0,0,0,-4.0508,-4.0604,-4.0589,-4.0608,-4.0704,-4.0783,-4.0795,-4.079,-4.0748,-4.0793,-4.0806,-4.0777,-4.0932,-4.0882,-4.0901,-4.0963,-4.1118,-4.1128,-4.1137,-4.1204,-4.1224,-4.124,0,0,0,0,0,0,-4.0572,-4.0609,-4.0592,-4.0704,-4.0741,-4.0774,-4.0832,-4.0811,-4.086,-4.0851,-4.0841,-4.0851,-4.0947,-4.0964,-4.0909,-4.1078,-4.1018,-4.1031,-4.1063,-4.1082,-4.1096,-4.1089,-4.0848,0,0,0,0,0,-4.0599,-4.0663,-4.0691,-4.0787,-4.0807,-4.0816,-4.0851,-4.0844,-4.0881,-4.0896,-4.0916,-4.0952,-4.1009,-4.1046,-4.11,-4.1213,-4.1219,-4.1264,-4.1279,-4.1291,-4.1302,-4.1361,-4.1381,-4.1171,-4.1171,-4.1171,0,0,-4.0656,-4.0684,-4.0725,-4.08,-4.0828,-4.0892,-4.083,-4.09,-4.0947,-4.0906,-4.0995,-4.1011,-4.105,-4.1154,-4.12,-4.1171,-4.1362,-4.1303,-4.1312,-4.1317,-4.1372,-4.1392,-4.141,-4.1178,-4.1177,-4.1176,0,0,-4.0792,-4.082,-4.0902,-4.0932,-4.0975,-4.0981,-4.1,-4.1037,-4.1046,-4.1135,-4.1106,-4.116,-4.1258,-4.1287,-4.1314,-4.1459,-4.1433,-4.1477,-4.1553,-4.1611,-4.1627,-4.1641,-4.1691,-4.1709,-4.1488,-4.1488,-4.1489,0,-4.0856,-4.0953,-4.0947,-4.102,-4.1053,-4.102,-4.1101,-4.1129,-4.1188,-4.121,-4.1177,-4.1298,-4.1323,-4.1431,-4.1466,-4.149,-4.151,-4.1472,-4.1625,-4.164,-4.1653,-4.17,-4.1719,-4.1493,-4.1493,-4.1492,-4.1492,0,-4.1029,-4.1096,-4.1157,-4.1215,-4.1255,-4.1332,-4.1335,-4.1376,-4.1365,-4.1373,-4.1463,-4.1491,-4.1549,-4.1574,-4.1564,-4.168,-4.1661,-4.1627,-4.1566,-4.1678,-4.1722,-4.174,-4.15,-4.1499,-4.1497,-4.1496,0,0,-4.1208,-4.1261,-4.1283,-4.1308,-4.1352,-4.1403,-4.1477,-4.1535,-4.1569,-4.161,-4.167,-4.1753,-4.1722,-4.1753,-4.1745,-4.1796,-4.1906,-4.1755,-4.1756,-4.1781,-4.2033,-4.2058,-4.2079,-4.1889,-4.1893,-4.1895,-4.2029,0,-4.1345,-4.1476,-4.1472,-4.1593,-4.1654,-4.1623,-4.1687,-4.172,-4.1729,-4.178,-4.179,-4.1849,-4.1804,-4.1822,-4.1871,-4.1882,-4.1956,-4.1873,-4.1943,-4.1945,-4.1933,-4.2102,-4.2128,-4.2254,-4.2047,-4.205,-4.2052,0,-4.1522,-4.157,-4.1698,-4.1731,-4.1757,-4.1815,-4.1866,-4.1916,-4.1952,-4.1955,-4.1989,-4.1973,-4.2045,-4.1984,-4.2082,-4.2026,-4.2054,-4.2064,-4.2068,-4.2073,-4.2005,-4.211,-4.2294,-4.2312,-4.2079,-4.2077,-4.2075,0,-4.1638,-4.1733,-4.1822,-4.1844,-4.1886,-4.1927,-4.1947,-4.1979,-4.2013,-4.2057,-4.2078,-4.213,-4.2158,-4.2197,-4.2194,-4.215,-4.2293,-4.2232,-4.2296,-4.2296,-4.2326,-4.2324,-4.2515,-4.2348,-4.2347,-4.2347,-4.2347,0,-4.179,-4.1869,-4.1874,-4.1928,-4.2014,-4.2008,-4.2093,-4.2107,-4.2136,-4.2191,-4.2167,-4.2218,-4.2212,-4.2263,-4.2261,-4.2341,-4.2355,-4.2357,-4.2355,-4.2359,-4.2358,-4.2376,-4.2367,-4.2352,-4.2351,-4.235,-4.2349,0,-4.1934,-4.194,-4.2034,-4.2066,-4.2076,-4.2138,-4.2164,-4.2214,-4.2222,-4.2291,-4.2307,-4.2317,-4.2376,-4.2377,-4.2444,-4.2442,-4.254,-4.2529,-4.2528,-4.2526,-4.2588,-4.2582,-4.2796,-4.2823,-4.264,-4.2641,-4.2643,0,-4.203,-4.209,-4.2129,-4.2164,-4.2186,-4.2244,-4.2278,-4.2273,-4.231,-4.2354,-4.2398,-4.2455,-4.25,-4.2594,-4.2607,-4.2657,-4.2646,-4.2718,-4.2653,-4.2654,-4.2645,-4.2641,-4.2645,-4.273,-4.2732,-4.2734,-4.2735,0,-4.22,-4.22,-4.2252,-4.2304,-4.2346,-4.2387,-4.2424,-4.2454,-4.2453,-4.2495,-4.2555,-4.259,-4.2658,-4.2714,-4.2762,-4.2779,-4.2757,-4.2755,-4.2772,-4.2775,-4.2772,-4.2772,-4.2561,-4.275,-4.2749,-4.2748,-4.2747,-4.2746,-4.2322,-4.2373,-4.2407,-4.2465,-4.2493,-4.2528,-4.2576,-4.2589,-4.264,-4.2696,-4.2689,-4.2755,-4.2787,-4.285,-4.2871,-4.2921,-4.2896,-4.2921,-4.2927,-4.2933,-4.2939,-4.2765,-4.293,-4.293,-4.293,-4.2929,-4.2929,0,-4.2488,-4.2509,-4.2562,-4.2616,-4.266,-4.2636,-4.2676,-4.2714,-4.2773,-4.2806,-4.285,-4.2918,-4.2971,-4.2987,-4.3038,-4.3075,-4.3065,-4.3088,-4.3085,-4.3088,-4.296,-4.2939,-4.3095,-4.3095,-4.3095,-4.3095,-4.3095,-4.3095,-4.2581,-4.2665,-4.2669,-4.2765,-4.2785,-4.285,-4.2875,-4.2906,-4.2932,-4.3009,-4.3053,-4.3064,-4.3089,-4.3141,-4.3188,-4.3191,-4.321,-4.3237,-4.3235,-4.3115,-4.3098,-4.3082,-4.3062,-4.3241,-4.3242,-4.3359,-4.336,-4.3361]}]]